Powrót do katalogu

COSMOS 375 DEB

AktywnyLEO
NORAD 4728·DEBRIS·🇷🇺 Russia

Wystrzelony Oct 30, 1970 z Baikonur Cosmodrome

Loading…

Następne Przeloty (najbliższe 24 godziny)

TLE

ŚwieżeSource: Space-Track

Epoka: Sep 14, 2026, 06:55 UTC

1 04728U 70091Z   26257.28842579  .00000680  00000-0  28022-3 0  9996
2 04728  62.9061 351.3724 0633920 294.8848  58.7571 13.59282353689106

Śledź COSMOS 375 DEB w czasie rzeczywistym z AllMySat

Download on the App Store